Location: Franzen
(48.6167°N, 15.3833°E)
Time: 20:26:48
(UTC+00:00)

Cosmos 1709 Rocket - Pass Details

Date: 31 July 2021
Orbit: 947 x 1002 km, 82.9° (Epoch: 22 September)

Event Time Altitude Azimuth Distance (km) Brightness Sun altitude
Exits shadow 23:05:41 47° 160° (SSE) 1,304 4.2 -23.4°
Maximum altitude 23:07:33 70° 95° (E) 1,062 4.1 -23.4°
Drops below altitude 10° 23:13:55 10° 13° (NNE) 2,786 7.4 -23.3°
Sets 23:16:28 0° 11° (NNE) 3,741 8.5 -23.3°
